Ludington, MI

8:28 PM EDT on October 20, 2019 (GMT -0400)
Mason County

Weather History for KLDM - May, 2019

Change the Weather History Date:

Thursday, May 16, 2019

  Actual Average Record
Temperature  
Mean Temperature 54 °F -  
Max Temperature 67 °F 67 °F 84 °F (1977)
Min Temperature 41 °F 44 °F 28 °F (1984)
Degree Days  
Heating Degree Days 11    
Growing Degree Days 4 (Base 50)    
Moisture  
Dew Point 49 °F    
Average Humidity 80    
Maximum Humidity 97    
Minimum Humidity 60    
Precipitation  
Precipitation 0.00 in - - ()
Sea Level Pressure  
Sea Level Pressure 29.77 in    
Wind  
Wind Speed 5 mph (South)    
Max Wind Speed 21 mph    
Max Gust Speed 32 mph    
Visibility 10 miles    
Events Rain    
Averages and records for this station are not official NWS values.
T = Trace of Precipitation, MM = Missing Value Source: NWS Daily Summary

Daily Weather History Graph

Daily Weather History Graph

Search for Another Location

Airport or City:

Astronomy

May. 16, 2019 Rise Set
Actual Time 6:18 AM EDT 9:05 PM EDT
Civil Twilight 5:45 AM EDT 9:39 PM EDT
Nautical Twilight 5:03 AM EDT 10:21 PM EDT
Astronomical Twilight 4:14 AM EDT 11:11 PM EDT
Moon 6:37 PM EDT (5/16) 5:25 AM EDT (5/16)
Length of Visible Light 15h 54m
Length of Day
14h 46m
Waxing Gibbous, 94% of the Moon is Illuminated
May 16
Waxing Gibbous
May 18
Full
May 26
Last Quarter
Jun 3
New
Jun 10
First Quarter

Hourly Weather History & Observations

Time (EDT) Temp. Windchill Dew Point Humidity Pressure Visibility Wind Dir Wind Speed Gust Speed Precip Events Conditions
12:15 AM 43.3 °F - 41.7 °F 94% 29.92 in 10.0 mi Calm Calm - N/A   Clear
12:16 AM 43.3 °F - 41.9 °F 95% 29.92 in 10.0 mi Calm Calm - N/A   Clear
12:35 AM 43.2 °F - 42.1 °F 96% 29.91 in 10.0 mi Calm Calm - N/A   Clear
12:55 AM 42.8 °F - 41.5 °F 95% 29.91 in 10.0 mi Calm Calm - N/A   Clear
1:15 AM 41.9 °F - 40.8 °F 96% 29.90 in 10.0 mi Calm Calm - N/A   Clear
1:35 AM 42.8 °F - 41.9 °F 97% 29.90 in 10.0 mi Calm Calm - N/A   Clear
1:36 AM 43.3 °F - 42.4 °F 97% 29.90 in 10.0 mi Calm Calm - N/A   Clear
1:55 AM 42.8 °F - 41.7 °F 96% 29.90 in 10.0 mi Calm Calm - N/A   Clear
1:56 AM 42.6 °F - 41.5 °F 96% 29.90 in 10.0 mi Calm Calm - N/A   Clear
2:15 AM 42.8 °F - 41.5 °F 95% 29.90 in 10.0 mi Calm Calm - N/A   Clear
2:16 AM 42.8 °F - 41.7 °F 96% 29.90 in 10.0 mi Calm Calm - N/A   Clear
2:35 AM 42.1 °F - 41.0 °F 96% 29.89 in 10.0 mi Calm Calm - N/A   Clear
2:55 AM 43.2 °F - 42.3 °F 97% 29.88 in 10.0 mi Calm Calm - N/A   Clear
3:15 AM 43.2 °F - 42.3 °F 97% 29.88 in 10.0 mi Calm Calm - N/A   Clear
3:35 AM 43.3 °F - 42.1 °F 95% 29.87 in 10.0 mi Calm Calm - N/A   Clear
3:36 AM 43.2 °F - 42.1 °F 96% 29.87 in 10.0 mi Calm Calm - N/A   Clear
3:55 AM 43.7 °F - 42.4 °F 95% 29.87 in 10.0 mi Calm Calm - N/A   Clear
3:56 AM 43.5 °F - 42.3 °F 95% 29.87 in 10.0 mi Calm Calm - N/A   Clear
4:15 AM 42.6 °F 40.9 °F 41.2 °F 95% 29.86 in 10.0 mi East 3.5 mph - N/A   Clear
4:35 AM 44.4 °F - 42.3 °F 92% 29.87 in 10.0 mi Calm Calm - N/A   Clear
4:55 AM 41.7 °F - 40.3 °F 95% 29.86 in 10.0 mi Calm Calm - N/A   Clear
5:15 AM 46.8 °F - 42.1 °F 84% 29.85 in 10.0 mi SE 3.5 mph - N/A   Clear
5:16 AM 46.9 °F - 42.1 °F 83% 29.85 in 10.0 mi SE 3.5 mph - N/A   Clear
5:35 AM 49.6 °F - 42.8 °F 77% 29.85 in 10.0 mi SE 5.8 mph - N/A   Clear
5:36 AM 49.8 °F - 42.8 °F 77% 29.86 in 10.0 mi SE 4.6 mph - N/A   Clear
5:55 AM 50.4 °F - 42.8 °F 75% 29.85 in 10.0 mi SE 6.9 mph - N/A   Clear
5:56 AM 50.4 °F - 42.8 °F 75% 29.85 in 10.0 mi ESE 6.9 mph - N/A   Clear
6:15 AM 50.7 °F - 42.8 °F 74% 29.85 in 10.0 mi SE 4.6 mph - N/A   Clear
6:35 AM 50.7 °F - 42.8 °F 74% 29.84 in 10.0 mi Calm Calm - N/A   Clear
6:55 AM 51.4 °F - 42.3 °F 71% 29.84 in 10.0 mi SE 6.9 mph - N/A   Mostly Cloudy
7:15 AM 51.8 °F - 42.4 °F 70% 29.83 in 10.0 mi ESE 5.8 mph - N/A   Mostly Cloudy
7:16 AM 51.8 °F - 42.4 °F 70% 29.83 in 10.0 mi ESE 5.8 mph - N/A   Mostly Cloudy
7:35 AM 52.2 °F - 42.6 °F 70% 29.82 in 10.0 mi SE 5.8 mph - N/A   Scattered Clouds
7:36 AM 52.3 °F - 42.4 °F 69% 29.82 in 10.0 mi SE 4.6 mph - N/A   Scattered Clouds
7:55 AM 54.5 °F - 43.2 °F 66% 29.82 in 10.0 mi ESE 4.6 mph - N/A   Clear
7:56 AM 54.5 °F - 43.2 °F 66% 29.82 in 10.0 mi ESE 4.6 mph - N/A   Clear
8:15 AM 55.2 °F - 43.3 °F 64% 29.81 in 10.0 mi SE 5.8 mph - N/A   Clear
8:35 AM 56.5 °F - 43.7 °F 62% 29.82 in 10.0 mi SE 5.8 mph - N/A   Clear
8:55 AM 57.6 °F - 43.9 °F 60% 29.82 in 10.0 mi SSE 4.6 mph - N/A   Clear
8:56 AM 57.6 °F - 43.9 °F 60% 29.82 in 10.0 mi SSE 5.8 mph - N/A   Clear
9:15 AM 58.3 °F - 44.8 °F 61% 29.82 in 10.0 mi SSE 3.5 mph - N/A   Mostly Cloudy
9:16 AM 58.3 °F - 44.8 °F 61% 29.82 in 10.0 mi SSE 4.6 mph - N/A   Mostly Cloudy
9:35 AM 59.0 °F - 45.3 °F 60% 29.82 in 10.0 mi SSE 6.9 mph - N/A   Overcast
9:36 AM 59.0 °F - 45.3 °F 60% 29.82 in 10.0 mi SSE 6.9 mph - N/A   Overcast
9:55 AM 59.9 °F - 46.2 °F 61% 29.82 in 10.0 mi South 5.8 mph - N/A   Scattered Clouds
10:15 AM 61.2 °F - 47.7 °F 61% 29.81 in 10.0 mi SSE 6.9 mph - N/A   Clear
10:35 AM 61.2 °F - 48.2 °F 62% 29.79 in 10.0 mi South 8.1 mph - N/A   Clear
10:36 AM 61.2 °F - 48.2 °F 62% 29.79 in 10.0 mi South 6.9 mph - N/A   Clear
10:55 AM 61.5 °F - 49.5 °F 65% 29.79 in 10.0 mi SSW 9.2 mph - N/A Rain Rain
10:56 AM 61.3 °F - 49.6 °F 65% 29.79 in 10.0 mi SSW 11.5 mph - N/A Rain Rain
11:15 AM 59.5 °F - 51.1 °F 74% 29.78 in 10.0 mi SSW 13.8 mph 21.9 mph N/A Rain Rain
11:35 AM 57.7 °F - 51.1 °F 78% 29.77 in 10.0 mi SSW 13.8 mph 19.6 mph N/A Rain Light Rain
11:55 AM 58.6 °F - 51.4 °F 77% 29.76 in 10.0 mi SSW 11.5 mph 18.4 mph N/A   Overcast
11:56 AM 58.8 °F - 51.6 °F 77% 29.76 in 10.0 mi SSW 12.7 mph 18.4 mph N/A   Overcast
12:15 PM 60.3 °F - 51.6 °F 73% 29.74 in 10.0 mi SSW 15.0 mph 21.9 mph N/A   Scattered Clouds
12:16 PM 60.3 °F - 51.8 °F 74% 29.74 in 10.0 mi SSW 13.8 mph 21.9 mph N/A   Scattered Clouds
12:35 PM 61.7 °F - 52.7 °F 72% 29.72 in 10.0 mi South 15.0 mph 23.0 mph N/A   Clear
12:55 PM 63.7 °F - 54.3 °F 72% 29.70 in 10.0 mi SSW 17.3 mph 26.5 mph N/A   Clear
1:15 PM 64.9 °F - 55.6 °F 72% 29.70 in 10.0 mi SSW 15.0 mph 26.5 mph N/A   Scattered Clouds
1:35 PM 66.6 °F - 56.8 °F 71% 29.69 in 10.0 mi South 18.4 mph 23.0 mph N/A   Mostly Cloudy
1:36 PM 66.6 °F - 56.8 °F 71% 29.70 in 10.0 mi South 18.4 mph 28.8 mph N/A   Mostly Cloudy
1:55 PM 67.1 °F - 57.7 °F 72% 29.69 in 10.0 mi SSW 15.0 mph 23.0 mph N/A   Mostly Cloudy
1:56 PM 67.1 °F - 57.7 °F 72% 29.69 in 10.0 mi SSW 13.8 mph 23.0 mph N/A   Mostly Cloudy
2:15 PM 67.8 °F - 57.9 °F 71% 29.68 in 10.0 mi SW 17.3 mph 32.2 mph N/A   Mostly Cloudy
2:35 PM 65.8 °F - 57.2 °F 74% 29.68 in 10.0 mi SW 16.1 mph 20.7 mph N/A   Mostly Cloudy
2:55 PM 63.3 °F - 56.1 °F 77% 29.69 in 10.0 mi WSW 15.0 mph 23.0 mph N/A   Mostly Cloudy
2:56 PM 63.0 °F - 55.9 °F 78% 29.69 in 10.0 mi SW 13.8 mph 23.0 mph N/A   Mostly Cloudy
3:15 PM 60.6 °F - 54.7 °F 81% 29.70 in 7.0 mi SW 17.3 mph 29.9 mph N/A   Overcast
3:16 PM 60.4 °F - 54.7 °F 81% 29.70 in 7.0 mi SW 18.4 mph 29.9 mph N/A   Overcast
3:35 PM 61.7 °F - 55.2 °F 79% 29.70 in 7.0 mi SW 13.8 mph 21.9 mph N/A   Overcast
3:55 PM 59.2 °F - 54.9 °F 86% 29.70 in 7.0 mi SW 15.0 mph 20.7 mph N/A   Overcast
4:15 PM 60.6 °F - 55.8 °F 84% 29.69 in 7.0 mi SW 13.8 mph 21.9 mph N/A   Overcast
4:16 PM 60.8 °F - 55.6 °F 83% 29.69 in 7.0 mi SW 12.7 mph 21.9 mph N/A   Overcast
4:35 PM 61.0 °F - 56.5 °F 85% 29.69 in 7.0 mi SW 15.0 mph 23.0 mph N/A   Overcast
4:36 PM 61.0 °F - 56.5 °F 85% 29.69 in 7.0 mi SW 15.0 mph 23.0 mph N/A   Overcast
4:55 PM 62.2 °F - 57.0 °F 83% 29.69 in 10.0 mi SW 11.5 mph 17.3 mph N/A   Overcast
5:15 PM 63.1 °F - 57.2 °F 81% 29.68 in 10.0 mi SSW 10.4 mph 19.6 mph N/A   Overcast
5:35 PM 62.2 °F - 56.5 °F 81% 29.68 in 10.0 mi SSW 12.7 mph 20.7 mph N/A   Overcast
5:36 PM 62.1 °F - 56.3 °F 81% 29.69 in 10.0 mi SSW 10.4 mph 20.7 mph N/A   Overcast
5:55 PM 63.3 °F - 56.7 °F 79% 29.69 in 10.0 mi South 13.8 mph 19.6 mph N/A   Overcast
5:56 PM 63.3 °F - 56.7 °F 79% 29.69 in 10.0 mi South 11.5 mph 19.6 mph N/A   Overcast
6:15 PM 62.6 °F - 55.8 °F 78% 29.68 in 10.0 mi SSW 12.7 mph 19.6 mph N/A   Scattered Clouds
6:35 PM 62.8 °F - 54.7 °F 75% 29.68 in 10.0 mi South 11.5 mph 17.3 mph N/A   Scattered Clouds
6:55 PM 62.4 °F - 55.0 °F 77% 29.68 in 10.0 mi SSW 9.2 mph - N/A   Scattered Clouds
7:15 PM 61.2 °F - 53.6 °F 76% 29.68 in 10.0 mi South 9.2 mph - N/A   Clear
7:16 PM 61.0 °F - 53.6 °F 77% 29.68 in 10.0 mi South 8.1 mph - N/A   Clear
7:35 PM 59.7 °F - 52.9 °F 78% 29.67 in 10.0 mi South 8.1 mph - N/A   Clear
7:55 PM 59.9 °F - 53.6 °F 80% 29.67 in 10.0 mi SSW 5.8 mph - N/A   Clear
8:15 PM 59.5 °F - 53.6 °F 81% 29.68 in 10.0 mi SW 5.8 mph - N/A   Clear
8:35 PM 59.7 °F - 53.6 °F 80% 29.67 in 10.0 mi South 4.6 mph - N/A   Clear
8:36 PM 59.7 °F - 53.6 °F 80% 29.67 in 10.0 mi South 4.6 mph - N/A   Clear
8:55 PM 59.0 °F - 53.6 °F 82% 29.67 in 10.0 mi South 3.5 mph - N/A   Clear
8:56 PM 59.0 °F - 53.6 °F 82% 29.67 in 10.0 mi SSW 3.5 mph - N/A   Clear
9:15 PM 58.5 °F - 53.6 °F 84% 29.68 in 10.0 mi SW 3.5 mph - N/A   Clear
9:35 PM 57.7 °F - 54.0 °F 87% 29.68 in 10.0 mi Calm Calm - N/A   Clear
9:55 PM 56.8 °F - 53.8 °F 89% 29.68 in 10.0 mi Calm Calm - N/A   Clear
10:15 PM 55.0 °F - 52.7 °F 92% 29.68 in 10.0 mi Calm Calm - N/A   Clear
10:35 PM 54.5 °F - 52.9 °F 94% 29.71 in 10.0 mi North 20.7 mph 25.3 mph N/A   Scattered Clouds
10:36 PM 54.7 °F - 53.1 °F 94% 29.71 in 10.0 mi North 20.7 mph 27.6 mph N/A   Scattered Clouds
10:55 PM 58.1 °F - 54.9 °F 89% 29.71 in 10.0 mi North 4.6 mph - N/A   Mostly Cloudy
11:15 PM 56.7 °F - 54.0 °F 91% 29.72 in 10.0 mi Calm Calm - N/A   Overcast
11:35 PM 57.0 °F - 53.6 °F 88% 29.72 in 10.0 mi North 3.5 mph - N/A   Overcast
11:36 PM 56.8 °F - 53.6 °F 89% 29.72 in 10.0 mi North 4.6 mph - N/A   Overcast
11:55 PM 56.5 °F - 52.9 °F 88% 29.72 in 10.0 mi North 5.8 mph - N/A   Mostly Cloudy
11:56 PM 56.5 °F - 52.9 °F 88% 29.72 in 10.0 mi North 6.9 mph - N/A   Overcast